Bradford, PA

12:58 PM EDT on June 22, 2017 (GMT -0400)
Bradford Regional

Weather History for KBFD - July, 2013

Change the Weather History Date:

Wednesday, July 31, 2013

  Actual Average Record
Temperature  
Mean Temperature 61 °F 65 °F  
Max Temperature 75 °F 77 °F 92 °F (1975)
Min Temperature 47 °F 53 °F 41 °F (1964)
Degree Days  
Heating Degree Days 4 0  
Month to date heating degree days 52 1  
Since 1 June heating degree days 156 209  
Since 1 July heating degree days 52 64  
Cooling Degree Days 0 2  
Month to date cooling degree days 148 74  
Year to date cooling degree days 241 124  
Since 1 June cooling degree days 198 114  
Growing Degree Days 10 (Base 50)    
Moisture  
Dew Point 52 °F    
Average Humidity 70    
Maximum Humidity 93    
Minimum Humidity 46    
Precipitation  
Precipitation 0.00 in 0.14 in 2.93 in (2012)
Month to date precipitation 2.62 4.19  
Year to date precipitation 18.26 25.84  
Sea Level Pressure  
Sea Level Pressure 30.11 in    
Wind  
Wind Speed 3 mph (South)    
Max Wind Speed 10 mph    
Max Gust Speed 14 mph    
Visibility 10 miles    
Events      
T = Trace of Precipitation, MM = Missing Value Source: NWS Daily Summary

Daily Weather History Graph

Daily Weather History Graph

Search for Another Location

Airport or City:

Trip Planner

Search our weather history database for the weather conditions in past years. The results will help you decide how hot, cold, wet, or windy it might be!

Date:

Astronomy

Jul. 31, 2013 Rise Set
Actual Time 6:07 AM EDT 8:33 PM EDT
Civil Twilight 5:36 AM EDT 9:04 PM EDT
Nautical Twilight 4:57 AM EDT 9:43 PM EDT
Astronomical Twilight 4:13 AM EDT 10:27 PM EDT
Moon 1:02 AM EDT (7/31) 3:48 PM EDT (7/31)
Length of Visible Light 15h 28m
Length of Day
14h 25m
Waning Crescent, 32% of the Moon is Illuminated
Jul 31
Waning Crescent
Aug 6
New
Aug 14
First Quarter
Aug 20
Full
Aug 28
Last Quarter

Hourly Weather History & Observations

Time (EDT) Temp. Dew Point Humidity Pressure Visibility Wind Dir Wind Speed Gust Speed Precip Events Conditions
12:53 AM 51.1 °F 48.9 °F 92% 30.20 in 8.0 mi Calm Calm - N/A   Clear
1:53 AM 51.1 °F 48.0 °F 89% 30.19 in 10.0 mi Calm Calm - N/A   Clear
3:53 AM 48.0 °F 46.0 °F 93% 30.19 in 10.0 mi ESE 3.5 mph - N/A   Clear
4:53 AM 48.9 °F 46.9 °F 93% 30.17 in 10.0 mi Calm Calm - N/A   Clear
5:53 AM 48.0 °F 45.0 °F 89% 30.18 in 10.0 mi Calm Calm - N/A   Clear
6:53 AM 48.9 °F 46.0 °F 90% 30.18 in 10.0 mi SE 3.5 mph - N/A   Clear
7:53 AM 55.9 °F 53.1 °F 90% 30.17 in 10.0 mi SE 3.5 mph - N/A   Clear
8:53 AM 62.1 °F 55.0 °F 78% 30.18 in 10.0 mi SE 3.5 mph - N/A   Clear
9:53 AM 66.0 °F 55.0 °F 68% 30.17 in 10.0 mi SSW 6.9 mph - N/A   Clear
10:53 AM 68.0 °F 55.0 °F 63% 30.16 in 10.0 mi SSW 4.6 mph - N/A   Partly Cloudy
11:53 AM 71.1 °F 54.0 °F 55% 30.14 in 10.0 mi North - - N/A   Partly Cloudy
12:53 PM 72.0 °F 53.1 °F 51% 30.13 in 10.0 mi Calm Calm - N/A   Mostly Cloudy
1:53 PM 72.0 °F 53.1 °F 51% 30.11 in 10.0 mi SSW 5.8 mph - N/A   Mostly Cloudy
2:53 PM 73.0 °F 53.1 °F 49% 30.10 in 10.0 mi Calm Calm - N/A   Scattered Clouds
3:53 PM 73.9 °F 54.0 °F 50% 30.09 in 10.0 mi Variable 4.6 mph - N/A   Partly Cloudy
4:53 PM 73.0 °F 52.0 °F 48% 30.07 in 10.0 mi SSW 5.8 mph - N/A   Clear
5:53 PM 71.1 °F 55.9 °F 59% 30.06 in 10.0 mi Variable 4.6 mph - N/A   Clear
6:53 PM 72.0 °F 54.0 °F 53% 30.05 in 10.0 mi Variable 6.9 mph - N/A   Clear
7:53 PM 70.0 °F 55.0 °F 59% 30.03 in 10.0 mi South 3.5 mph - N/A   Clear
8:53 PM 63.0 °F 55.9 °F 78% 30.02 in 10.0 mi Calm Calm - N/A   Partly Cloudy
9:53 PM 59.0 °F 55.9 °F 90% 30.01 in 8.0 mi Calm Calm - N/A   Clear
10:53 PM 59.0 °F 55.0 °F 87% 30.00 in 9.0 mi Calm Calm - N/A   Mostly Cloudy
11:53 PM 57.9 °F 55.0 °F 90% 29.98 in 5.0 mi Calm Calm - N/A   Partly Cloudy